www.pogodaiklimat.ru

Погода и климат >> Архив погоды >> Гана >> Kete-Krachi


ПОГОДА в Kete-Krachi

  • Прогноз погоды в Kete-Krachi
  • Монитор погоды в Kete-Krachi
  • Климат города

АРХИВ ПОГОДЫ в Kete-Krachi

Время (UTC), дата Ветер
(напр.,м/с)
 
Видим.   Явления Облачность Т
(С)
Тd
(С)
f
(%)
Тe
(С)
Тes
(С)
Комфортность P
(гПа)
Po
(гПа)
Тmin
(С)
Tmax
(С)
R
(мм)
R24
(мм)
S
(см)
12 15.02 ЮЗ 2 9000 м мгла 4/0
[Ac trans Ci sp]
+35.2 +24.6 54 +48 +65 опасность
перегрева
1008.7 1009.0
15 15.02 ЮЗ 2 9000 м мгла 9/0
[Ac trans Cs]
+38.0 +22.6 41 +47 +53 опасность
перегрева
1006.1 1006.0
18 15.02 штиль 0 9000 м мгла 9/0
[Ac trans Cs]
+36.2 +22.2 44 +45 +45 опасность
перегрева
1007.0 1007.0 +35.0
21 15.02 штиль 0 6000 м мгла 6/0
[Ci sp]
+29.5 +19.8 56 +36 +36 очень
душно
1005.5 1006.0
03 16.02 штиль 0 6000 м дымка ясно +27.7 +25.4 87 +40 +40 очень
душно
1009.4 1009.0
06 16.02 штиль 0 6000 м дымка 6/6 400 м
[Cu med, cong Ci sp]
+26.0 +24.6 92 +37 +37 очень
душно
1010.4 1010.0 +19.0
09 16.02 ЮЗ 2 16 км 6/6 480 м
[Cu med, cong]
+25.5 +20.5 74 +32 +36 очень
душно
1012.9 1013.0
12 16.02 ЮЗ 2 18 км 1/1 480 м
[Cu med, cong]
+33.5 +24.1 58 +45 +63 опасность
перегрева
1010.4 1010.0
18 16.02 штиль 0 16 км 6/0
[Ci sp]
+35.0 +22.7 49 +45 +45 опасность
перегрева
1007.0 1007.0 +37.8
21 16.02 штиль 0 16 км 6/0
[Ci sp]
+29.8 +22.5 65 +39 +39 очень
душно
1008.7 1009.0
00 17.02 штиль 0 16 км ясно +28.5 +23.0 72 +38 +38 очень
душно
1009.5 1010.0
03 17.02 ЮЗ 1 16 км 5/0
[Ci sp]
+28.5 +25.8 85 +42 +42 опасность
перегрева
1009.0 1009.0
06 17.02 ЮЗ 1 16 км 9/4 400 м
[Sc Ac trans Cs]
+27.0 +25.7 93 +40 +40 очень
душно
1009.5 1010.0 +26.4
12 17.02 ЮЗ 2 16 км 1/1 500 м
[Cu med, cong]
+34.5 +25.0 58 +48 +67 опасность
перегрева
1009.3 1009.0
15 17.02 З 2 16 км ясно +38.0 +22.3 41 +47 +57 опасность
перегрева
1006.0 1006.0
21 17.02 штиль 0 14 км 4/0
[Ac trans]
+29.7 +21.7 62 +38 +38 очень
душно
1007.9 1008.0
09 18.02 Ю 1 16 км 8/5 500 м
[Cu med, cong Ac trans Ci sp]
+30.2 +25.2 75 +44 +48 опасность
перегрева
1011.1 1011.0
12 18.02 Ю 3 16 км 6/4 500 м
[Cu med, cong Ci sp]
+34.5 +25.9 61 +50 +59 опасность
перегрева
1009.0 1009.0
15 18.02 Ю 2 16 км 6/4 500 м
[Cu med, cong Ac trans Ci sp]
+36.6 +25.9 54 +52 +57 опасность
перегрева
1006.6 1007.0
00 19.02 ЮЗ 2 16 км 9/6 400 м
[Sc Ac trans]
+26.0 +25.3 96 +38 +38 очень
душно
1009.1 1009.0
06 19.02 штиль 0 16 км 9/3 400 м
[Sc Ac trans]
+27.2 +24.9 87 +39 +39 очень
душно
1008.6 1009.0 +26.8
09 19.02 Ю 1 16 км 9/3 480 м
[Cu med, cong Ac trans]
+29.5 +24.9 76 +42 +46 опасность
перегрева
1010.4 1010.0
12 19.02 Ю 2 16 км 9/3 500 м
[Cu med, cong Ac trans]
+34.5 +23.7 54 +46 +53 опасность
перегрева
1008.8 1009.0
15 19.02 Ю 2 16 км 5/1 540 м
[Cu med, cong Ac trans Ci sp]
+36.6 +22.9 45 +46 +53 опасность
перегрева
1005.6 1006.0
18 19.02 штиль 0 16 км 4/3 900 м
[Cb cap Ci sp]
+35.8 +22.7 47 +45 +45 опасность
перегрева
1005.4 1005.0 +36.8
03 20.02 ЮЗ 3 16 км 8/0 700 м
[Ac trans]
+29.0 +25.0 79 +42 +42 опасность
перегрева
1007.0 1007.0
06 20.02 Ю 3 16 км зарница 9/3 400 м
[Cb cap Ac trans]
+28.5 +24.2 78 +40 +40 очень
душно
1008.6 1009.0 +27.8
15 20.02 ЮВ 1 18 км 8/3 540 м
[Cb cap Ac trans Ci sp]
+36.0 +25.1 54 +50 +55 опасность
перегрева
1004.7 1005.0
18 20.02 ЮВ 3 18 км 9/4 360 м
[Cb cap Ac trans Cs]
+30.6 +19.7 52 +37 +37 очень
душно
1005.5 1006.0 +36.0
21 20.02 Ю 1 16 км 9/0
[Ac trans]
+29.5 +23.2 69 +40 +40 очень
душно
1008.6 1009.0
00 21.02 ЮВ 3 16 км 8/0
[Ac trans]
+26.8 +22.0 75 +35 +35 очень
душно
1009.5 1010.0
03 21.02 Ю 1 16 км 6/0
[Ci sp]
+25.6 +22.0 81 +33 +33 очень
душно
1007.3 1007.0
06 21.02 Ю 1 16 км 6/4 400 м
[Sc Ci sp]
+23.5 +20.6 84 +29 +29 душно 1008.4 1008.0 +23.0
09 21.02 ЮЗ 1 18 км 9/4 400 м
[Cu Sc Ac trans Cs]
+29.3 +23.0 69 +39 +43 очень
душно
1010.0 1010.0
12 21.02 ЮЗ 2 18 км 9/3 480 м
[Cu med, cong Cs]
+34.6 +22.9 51 +45 +56 опасность
перегрева
1007.2 1007.0
15 21.02 ЮВ 2 18 км 9/3 500 м
[Cb cap Cs]
+35.5 +22.7 48 +45 +51 опасность
перегрева
1004.4 1004.0
18 21.02 ЮВ 3 18 км 9/4 400 м
[Cb cap Ac trans Cs]
+33.8 +22.1 51 +43 +43 опасность
перегрева
1005.5 1006.0 +35.7
21 21.02 ЮВ 1 16 км 9/4 400 м
[Sc Ac trans]
+32.0 +23.1 59 +42 +42 опасность
перегрева
1007.7 1008.0

 

Местоположение метеостанции Kete-Krachi (Гана): широта 7.82 долгота -0.03 высота над уровнем моря 122 м.

В архиве по умолчанию представлена погода в Kete-Krachi за последнюю неделю. Архивные данные за месяц целиком и за предыдущие месяцы, начиная с января 2011 года, Вы можете получить, выбрав интересующий диапазон дат из раскрывающегося списка и нажав кнопку "Ввод!".

Внимание! Время в таблицах - всемирное. Для получения местного времени необходимо прибавить поправку, которая в Kete-Krachi равна 1 ч.

Смотрите также архив погоды в соседних городах и на ближайших метеорологических станциях:

Погода в Atakpame (Того) (130 км)
Погода в Ho (Гана) (146 км)
Погода в Abetifi (Гана) (151 км)
Погода в Yendi (Гана) (181 км)
Погода в Sokode (Того) (183 км)
Погода в Akuse (Гана) (192 км)
Погода в Koforidua (Гана) (195 км)
Погода в Tamale (Гана) (207 км)
Погода в Akatsi (Гана) (210 км)
Погода в Kumasi (Гана) (212 км)

Пояснения к столбцам:

Ветер - указаны скорость ветра в м/с - средняя за 10 мин, порывы в срок и между сроками (в фигурных скобках) и направление, откуда дует ветер: С - северный, СВ - северо-восточный, В - восточный, ЮВ - юго-восточный, Ю - южный, ЮЗ - юго-западный, З - западный, СЗ - северо-западный.
Видимость - горизонтальная дальность видимости в метрах или километрах. При видимости от 1 до 10 км при отсутствии осадков обычно наблюдается дымка, при ухудшении видимости до 1 км и менее - туман. В сухую погоду видимость может ухудшаться дымом, пылью или мглою.
Явления - указаны атмосферные явления, наблюдавшиеся в срок или в последний час перед сроком; фигурными скобками обозначены явления, наблюдавшиеся между сроками (за 1-3 часа до срока); квадратными скобками обозначены град или гололедные отложения с указанием их диаметра в мм.
Облачность - указаны через наклонную черту общая и нижняя облачность в баллах и высота нижней границы облаков в метрах; квадратными скобками обозначены формы облаков: Ci - перистые, Cs - перисто-слоистые, Cc - перисто-кучевые, Ac - высококучевые, As - высокослоистые, Sc - слоисто-кучевые, Ns - слоисто-дождевые, Cu - кучевые, Cb - кучево-дождевые. Подробнее классификацию облаков см. в Атласе облаков (PDF).
T - Температура воздуха - температура, измеренная на высоте 2 м над землей.
Td - Температура точки росы - температура, при понижении до которой содержащийся в воздухе водяной пар достигнет насыщения.
f - Относительная влажность воздуха - влажноcть воздуха, измеренная на высоте 2 м над землей.
Te - Эффективная температура - температура, которую ощущает одетый по сезону человек в тени. Характеристика душности погоды. При расчете учитывается влияние влажности воздуха и скорости ветра на теплоощущения человека.
Tes - Эффективная температура на солнце - температура, которую ощущает человек, с поправкой на солнечный нагрев. Характеристика знойности погоды. Зависит от высоты солнца над горизонтом, облачности и скорости ветра. Ночью, в пасмурную погоду, а также при ветре 12 м/с и более поправка равна нулю.
P - Атмосферное давление - приведенное к уровню моря атмосферное давление.
Po - Атмосферное давление - измеренное на уровне метеостанции атмосферное давление.
Tmin - Минимальная температура - минимум температуры воздуха на высоте 2 м над землей.
Tmax - Максимальная температура - максимум температуры воздуха на высоте 2 м над землей.
R - Количество осадков - Количество выпавших осадков за период времени, мм. При наведении курсора мыши на число - период времени, за который выпало указанное количество осадков.
R24 - Количество осадков - Количество выпавших осадков за 24 часа, мм.
S - Снежный покров - Высота снежного покрова, см. При наведении курсора мыши на число - состояние снежного покрова и степень покрытия местности в баллах.